DW6222 Weather Reports


time (UTC)temp
C
wind
direction
speed
KPH
gust
KPH
rain 1hr
cm
rain 24hr
cm
rain mn
cm
humidity
%
barometer
mb
20260906173056 21 67 11.3 17.7 0.00 0.00 0.00 85 1018.7
20260906171607 21 55 9.7 16.1 0.00 0.00 0.00 86 1019.0
20260906170103 21 62 9.7 16.1 0.00 0.00 0.00 87 1019.1
20260906164548 20 26 4.8 11.3 0.00 0.00 0.00 91 1019.0
20260906163059 20 233 3.2 8.0 0.00 0.00 0.00 92 1019.0
20260906161554 20 233 4.8 8.0 0.00 0.00 0.00 89 1019.1
20260906160051 21 304 3.2 8.0 0.00 0.00 0.00 90 1019.1
20260906154546 20 313 3.2 6.4 0.00 0.00 0.00 91 1019.1
20260906153055 20 277 3.2 6.4 0.00 0.00 0.00 91 1018.9
20260906151555 20 219 1.6 3.2 0.00 0.00 0.00 91 1019.0
20260906150050 20 0 1.6 6.4 0.00 0.00 0.00 92 1019.0
20260906144603 19 313 3.2 8.0 0.00 0.00 0.00 93 1019.1
20260906143107 19 0 0.0 0.0 0.00 0.00 0.00 94 1019.1
20260906141554 19 0 0.0 0.0 0.00 0.00 0.00 94 1019.4
20260906140046 19 0 0.0 0.0 0.00 0.00 0.00 94 1019.5
20260906134554 18 0 0.0 0.0 0.00 0.00 0.00 94 1019.5
20260906133103 18 0 0.0 0.0 0.00 0.00 0.00 94 1019.5
20260906131542 18 0 0.0 0.0 0.00 0.00 0.00 97 1019.3
20260906130104 17 0 0.0 0.0 0.00 0.00 0.00 97 1019.2
20260906124552 17 0 0.0 0.0 0.00 0.00 0.00 97 1019.2
20260906123046 17 0 0.0 0.0 0.00 0.00 0.00 97 1019.2
20260906121556 17 0 0.0 0.0 0.00 0.00 0.00 97 1019.1
20260906120057 16 0 0.0 0.0 0.00 0.00 0.00 98 1018.9
20260906114557 16 0 0.0 1.6 0.00 0.00 0.00 97 1018.4
20260906113049 16 0 0.0 3.2 0.00 0.00 0.00 97 1018.3
20260906111600 16 0 0.0 3.2 0.00 0.00 0.00 96 1018.2
20260906110057 17 0 0.0 0.0 0.00 0.00 0.00 96 1018.1
20260906104558 17 0 1.6 4.8 0.00 0.00 0.00 97 1018.0
20260906103045 17 267 3.2 6.4 0.00 0.00 0.00 97 1018.0
20260906101557 17 249 4.8 6.4 0.00 0.00 0.00 97 1018.0
20260906100055 17 274 8.0 11.3 0.00 0.00 0.00 96 1017.7
20260906094605 17 250 8.0 12.9 0.00 0.00 0.00 96 1017.8
20260906093131 17 292 1.6 6.4 0.00 0.00 0.00 96 1017.7
20260906091606 17 290 6.4 12.9 0.00 0.00 0.00 96 1018.1
20260906090052 17 292 6.4 11.3 0.00 0.00 0.00 96 1018.0
20260906084545 17 0 0.0 4.8 0.00 0.03 0.00 96 1018.1
20260906083050 17 0 0.0 4.8 0.00 0.03 0.00 96 1018.1
20260906081545 17 309 0.0 3.2 0.00 0.03 0.00 95 1018.1
20260906080056 17 0 0.0 3.2 0.00 0.03 0.00 95 1018.2
20260906074553 17 309 3.2 8.0 0.00 0.05 0.00 95 1018.0
20260906073048 17 297 6.4 8.0 0.00 0.05 0.00 94 1018.2
20260906071557 18 9 3.2 6.4 0.00 0.05 0.00 93 1018.2
20260906070056 18 360 3.2 8.0 0.00 0.05 0.00 93 1018.1
20260906064550 18 20 1.6 6.4 0.00 0.08 0.00 92 1018.2
20260906063058 18 5 3.2 6.4 0.00 0.08 0.00 92 1018.2
20260906061558 18 0 0.0 9.7 0.00 0.08 0.00 92 1018.2
20260906060054 18 31 9.7 16.1 0.00 0.08 0.00 92 1018.0
20260906054610 18 32 6.4 14.5 0.00 0.08 0.00 92 1017.9
20260906053045 18 34 4.8 9.7 0.00 0.08 0.00 90 1017.9
20260906051605 18 18 1.6 8.0 0.00 0.08 0.00 91 1018.0
20260906050104 18 31 3.2 6.4 0.00 0.08 0.00 91 1017.9
20260906044553 18 0 0.0 4.8 0.00 0.08 0.08 91 1017.9
20260906043058 18 30 1.6 6.4 0.00 0.08 0.08 91 1018.0
20260906041555 18 13 3.2 9.7 0.00 0.08 0.08 91 1017.9
20260906040101 18 31 4.8 11.3 0.00 0.08 0.08 91 1017.7
20260906034545 18 44 4.8 9.7 0.00 0.08 0.08 91 1017.4
20260906033056 18 57 8.0 17.7 0.00 0.08 0.08 91 1017.5
20260906031552 18 16 8.0 16.1 0.00 0.08 0.08 90 1018.0
20260906030051 18 26 3.2 9.7 0.00 0.08 0.08 90 1017.6
20260906024551 18 51 3.2 6.4 0.00 0.08 0.08 91 1017.7
20260906023055 18 20 1.6 4.8 0.00 0.08 0.08 91 1017.7
20260906021554 18 13 1.6 6.4 0.00 0.08 0.08 90 1017.6
20260906020051 18 55 1.6 8.0 0.00 0.08 0.08 89 1017.6
20260906014638 18 55 3.2 6.4 0.00 0.08 0.08 89 1017.6
20260906013101 18 55 0.0 4.8 0.00 0.08 0.08 90 1017.5
20260906011603 18 77 3.2 6.4 0.00 0.08 0.08 88 1017.2
20260906010050 19 77 1.6 3.2 0.00 0.08 0.08 86 1017.4
20260906004606 19 77 0.0 3.2 0.00 0.08 0.08 86 1017.4
20260906003112 20 77 0.0 4.8 0.00 0.08 0.08 86 1017.4
20260906001556 20 77 3.2 6.4 0.00 0.08 0.08 85 1017.3
20260906000056 20 99 8.0 16.1 0.00 0.08 0.08 82 1017.5
20260905234551 21 92 4.8 16.1 0.00 0.08 0.08 82 1017.4
20260905233047 21 90 8.0 14.5 0.00 0.08 0.08 80 1017.3
20260905231558 21 52 4.8 11.3 0.00 0.08 0.08 82 1017.3
20260905230057 21 22 6.4 14.5 0.00 0.08 0.08 81 1017.4
20260905224613 21 57 6.4 16.1 0.00 0.08 0.08 83 1017.4
20260905223058 21 51 8.0 17.7 0.00 0.08 0.08 82 1017.3
20260905221611 21 33 8.0 17.7 0.00 0.08 0.08 82 1017.2
20260905220054 21 46 11.3 19.3 0.00 0.08 0.08 80 1017.4
20260905214554 21 80 8.0 19.3 0.00 0.08 0.08 82 1017.6
20260905213104 21 19 9.7 17.7 0.00 0.08 0.08 81 1017.4
20260905211559 21 61 8.0 20.9 0.00 0.08 0.08 81 1017.3
20260905210053 21 49 14.5 20.9 0.00 0.08 0.08 81 1017.6
20260905204555 22 44 11.3 19.3 0.00 0.08 0.08 81 1017.6
20260905203053 22 60 12.9 22.5 0.00 0.08 0.08 81 1017.5
20260905201618 22 63 9.7 20.9 0.00 0.08 0.08 80 1017.6
20260905200100 21 61 9.7 17.7 0.00 0.08 0.08 80 1017.7
20260905194551 21 49 12.9 19.3 0.00 0.08 0.08 80 1017.7
20260905193054 21 24 8.0 17.7 0.00 0.08 0.08 83 1017.6
20260905191547 21 16 9.7 17.7 0.00 0.08 0.08 82 1017.4
20260905190052 21 54 11.3 19.3 0.00 0.08 0.08 79 1017.4
20260905184555 21 21 8.0 14.5 0.00 0.08 0.08 80 1017.3
20260905183045 21 53 9.7 16.1 0.00 0.08 0.08 83 1017.8
20260905181607 21 22 6.4 14.5 0.00 0.08 0.08 84 1017.7
20260905180053 21 61 6.4 14.5 0.00 0.08 0.08 85 1017.8
20260905174551 21 104 4.8 11.3 0.00 0.08 0.08 87 1017.9